Showing default

ICEYE-X41, 62700

Orbit data source: Space-Track

ICEYE-X41, 62700 is a payload satellite owned by ICEYE US (US) in SSO that was launched on Tue, 14 Jan 2025 UTC via an FALCON 9 launch vehicle from the Air Force Western Test Range (AFWTR). Payload-class satellites include a variety of spacecraft equipped with specific instruments for various scientific and technological missions. These include communications satellites like Starlink; space stations such as the ISS; scientific satellites like the Hubble; Earth observation satellites from companies like Planet Labs, Umbra, and HawkEye 360; GPS; miniature CubeSats for education and research; and military/defense satellites.

Loading next visibility...
Identifier
62700, 2025-009CV
Orbit
SSO
Country
Flag of USUS
Related business
Manufacturer
ICEYE
Mission
Operational Commercial Radar Imaging
Bus & Motor
ICEYE, Unknown motor
Mass
80 kg wet, 80 kg dry
Launch date (UTC)
2025-01-14 (9 months ago)
Launch vehicle
FALCON 9
Launch site
Air Force Western Test Range (AFWTR)
Object type
Payload
Rocket body
Debris
Shape & HBR
Box + 1 Pan, 0.6 m
Radar Cross Section
0.776 m², Medium (>0.1 m² and < 1m²)

Expand to show TLE details & history
Last TLE update: 13 hours ago

TLE from 13 hours ago
0 ICEYE-X41
1 62700U 25009CV  25286.49206884  .00006444  00000-0  60137-3 0  9993
2 62700  97.7283   4.6939 0002711 118.5955 241.5538 14.94533332 40536
Epoch: 2025-10-13T11:48Z
TLE epoch observation values (Epoch: 2025-10-13T11:48:34.747Z)
Latitude
-0.00008°
Longitude
165.25506°
Altitude
587.768 km
Speed
7.566 km/s
True Right ascension
00h 18m 46s
True Declination
0° 00' 00"
Sunlit
Object was in full shadow at epoch
Visualization orbit readout
Latitude
Unknown
Longitude
Unknown
Altitude
Unknown
Speed
Unknown
Apparent Right ascension
Unknown
Apparent Declination
Unknown
Sunlit
N/A
Visualization observer readout
Local Sidereal Time
18:50:40
Azimuth
Unknown
Elevation
Unknown
Doppler factor
Unknown
Orbital elements
Apogee altitude
582.722 km
Perigee altitude
578.949 km
Semi-major axis
6,958.972 km
Eccentricity
0.00027
Inclination
97.7283°
RAAN
4.6939°
Arg. of periapsis
118.5955°
True anomaly
241.52649°
Mean anomaly
241.5538°
Eccentric anomaly
241.54014°
Mean motion
3.73874 °/min
Orbital period
96.29 mins
BSTAR
0.00060137
Loading maneuver chart data...
Computing Atmospheric mass density...
Loading historical data...
Loading historical data...
Loading historical data...
Loading historical data...
Loading historical data...
Loading historical data...
Loading historical data...

Documentation

Showing up to 5 results
|